Regional Weather Roundup
Issued by NWS Upton, NY

Current Version | Previous Version | Graphics & Text | Print | Product List | Glossary Off
Versions: 1 2 3 4 5 6 7 8 9 10 11 12 13 14 15 16 17 18 19 20 21 22 23 24 25 26 27

000
ASUS41 KOKX 291605
RWROKX

REGIONAL WEATHER ROUNDUP
NATIONAL WEATHER SERVICE NEW YORK NY
1200 PM EDT SUN MAY 29 2016

NOTE: "FAIR" INDICATES FEW OR NO CLOUDS BELOW 12,000 FEET WITH NO
SIGNIFICANT WEATHER AND/OR OBSTRUCTIONS TO VISIBILITY.

NYZ071-072-176-178-NJZ106-104-291700-
NEW YORK CITY METRO AREA


CITY           SKY/WX    TMP DP  RH WIND       PRES   REMARKS
CENTRAL PARK   PTSUNNY   84  59  42 MISG      30.15F
LAGUARDIA APRT CLOUDY    86  65  49 S13       30.12F
KENNEDY INTL   CLOUDY    74  62  66 S12       30.16S
NEWARK/LIBERTY PTSUNNY   86  59  39 S9G16     30.12F
BRNX BOT. GARD   N/A     84  61  45 CALM      30.14F
TETERBORO      CLOUDY    85  58  39 SW9       30.11S
$$

NYZ177-179-078>081-291700-
LONG ISLAND NEW YORK

CITY           SKY/WX    TMP DP  RH WIND       PRES   REMARKS
FARMINGDALE    MOSUNNY   80  63  55 SW10      30.14F
ISLIP          PTSUNNY   79  60  52 SW12      30.14F
SHIRLEY        MOSUNNY   79  60  52 S9        30.16S
RIVERHEAD        N/A     82  63  51 NW3       30.14S
WESTHAMPTON    SUNNY     76  61  59 SW12      30.17S
EAST HAMPTON   FAIR      75  61  61 SW8       30.16R
MONTAUK POINT    N/A     73  63  70 S7        30.18S
$$

NYZ052-065-067-291700-
HUDSON VALLEY

CITY           SKY/WX    TMP DP  RH WIND       PRES   REMARKS
WHITE PLAINS   SUNNY     85  63  47 S7        30.13F
NEWBURGH       PTSUNNY   84  72  65 W7        30.12F
MONTGOMERY     CLOUDY    86  71  60 S9        30.10F HX  91
POUGHKEEPSIE   SUNNY     88  69  53 VRB7      30.08F HX  92
ALBANY         PTSUNNY   88  68  51 S9        30.07F HX  91
$$

NJZ001-105-106-008-010-013-015-019>022-104-291700-
NEW JERSEY

CITY           SKY/WX    TMP DP  RH WIND       PRES   REMARKS
NEWARK/LIBERTY PTSUNNY   86  59  39 S9G16     30.12F
TETERBORO      CLOUDY    85  58  39 SW9       30.11S
CALDWELL       PTSUNNY   85  62  46 CALM      30.12F
MORRISTOWN     MOSUNNY   84  64  51 SW8       30.12F
SOMERVILLE     MOSUNNY   85  66  53 S5        30.11F
SUSSEX         MOSUNNY   83  66  56 SW7       30.12F
ANDOVER          N/A     84  66  54 VRB3      30.13F
TRENTON        SUNNY     82  62  50 SW8       30.13F
MILLVILLE      SUNNY     81  62  52 SE7       30.15S
ATLANTIC CITY  SUNNY     79  65  62 S9        30.15F
WRIGHTSTOWN    NOT AVBL
TOMS RIVER     MOSUNNY   86  54  32 SW6       30.14F
BELMAR         MOSUNNY   82  65  56 SE8       30.15F
$$

PAZ047>061-062-071-291700-
EASTERN PENNSYLVANIA

CITY           SKY/WX    TMP DP  RH WIND       PRES   REMARKS
PHILADELPHIA   PTSUNNY   82  60  47 S7        30.14F
ALLENTOWN      SUNNY     86  63  45 S6        30.13F
SCRANTON       SUNNY     86  66  51 W8        30.11F
$$

CTZ002-004>006-009-010-012-RIZ004-006-007-MAZ004-011-015-291700-
SOUTHERN NEW ENGLAND
 IN CT

CITY           SKY/WX    TMP DP  RH WIND       PRES   REMARKS
BRADLEY INTL   CLOUDY    85  68  56 E7        30.12F
HARTFORD       MOSUNNY   87  69  54 S6        30.11F HX  91
DANBURY        SUNNY     86  66  51 S8        30.13F
WTRBRY/OXFORD  PTSUNNY   84  66  54 S9        30.17
BRIDGEPORT     MOSUNNY   80  62  54 VRB5      30.13S
MERIDEN        MOSUNNY   86  65  49 S9        30.12F
NEW HAVEN      MOSUNNY   78  59  51 S8        30.14S
CHESTER        FAIR      82  63  51 S6        30.15S
GROTON         MOSUNNY   75  62  64 SE8       30.15S
WILLIMANTIC    MOSUNNY   85  65  51 VRB5      30.14F

 IN RI

CITY           SKY/WX    TMP DP  RH WIND       PRES   REMARKS
PROVIDENCE     PTSUNNY   74  61  63 NE7       30.18F
BLOCK ISLAND   SUNNY     73  62  68 S8        30.18S
WESTERLY       MOSUNNY   73  57  57 SE8       30.16F

 IN MA

CITY           SKY/WX    TMP DP  RH WIND       PRES   REMARKS
BOSTON         CLOUDY    60  54  80 N12       30.22S
WORCESTER      CLOUDY    63  58  83 NE8       30.21S
WESTFIELD      PTSUNNY   81  67  62 VRB5      30.13F
PROVINCETOWN   SUNNY     62  55  77 N12       30.19F
NANTUCKET      SUNNY     71  61  70 N8        30.17F
$$

ANZ330-335-338-340-345-350-353-355-291700-
COASTAL MARINE OBSERVATIONS


STATION/POSITION TIME  SKY/WX   TEMP    WIND        PRES    VSBY  WAVE
                                AIR SEA DIR/SP/G                  HT/PER
                 (UTC)          (F)     (DEG/KT/KT) (MB)    (MI)  (FT/S)
NY HARB ENTRANCE 1450            61 59  180/ 10/ 10 1020.8          2/ 8
20S FIRE ISLAND  1450            62 60  190/  8/ 10 1021.2          2/ 8
GREAT SOUTH BAY  NOT AVBL
23 SSW MONTAUK P 1550            60 58  220/ 10/ 10 1021.2          3/ 8
15 E BARNEGAT LI 1522               61                N/A           2/ 8
HUDSON CANYON    1450            63 60              1021.8          3/ 8
KINGS POINT      1500            77 63              1020.1
EXECUTION ROCKS  NOT AVBL
CENTRAL LI SOUND 1500            66      60/  6/  8   N/A           0
EASTERN LI SOUND 1500            62 55  130/  6/  6   N/A
ROBBINS REEF     1512            75     160/ 15/ 16 1019.6
$$


>>>>>>>>>>>>>>>>>>>>>>>>>>>> KEY <<<<<<<<<<<<<<<<<<<<<<<<<<<
>                                                          <
>     SKY/WX - SKY CONDITION/PRESENT WEATHER               <
>     TMP    - TEMPERATURE IN FAHRENHEIT                   <
>     DP     - DEWPOINT IN FAHRENHEIT                      <
>     RH     - RELATIVE HUMIDITY IN PERCENT                <
>     WIND   - DIRECTION AND SPEED IN MPH                  <
>     PRES   - MEAN SEA LEVEL PRESSURE IN INCHES OF HG     <
>     WCI    - WIND CHILL INDEX                            <
>     VSB    - VISIBILITY IN MILES                         <
>     HX     - HEAT INDEX                                  <
>     TC     - TEMPERATURE IN CELSIUS                      <
>     VRB    - VARIABLE WIND DIRECTION                     <
>                                                          <
>>>>>>>>>>>>>>>>>>>>>>>>>>>> KEY <<<<<<<<<<<<<<<<<<<<<<<<<<<






USA.gov is the U.S. government's official web portal to all federal, state and local government web resources and services.